Year,Month,Day,Hour,Minute,Value (Times are PST for windspeed in km/hr)
2011,11,11,00,00,0.00
2011,11,11,00,01,0.00
2011,11,11,00,02,0.00
2011,11,11,00,03,0.00
2011,11,11,00,04,0.00
2011,11,11,00,05,0.00
2011,11,11,00,06,0.00
2011,11,11,00,07,0.00
2011,11,11,00,08,3.00
2011,11,11,00,09,2.20
2011,11,11,00,10,0.20
2011,11,11,00,11,0.10
2011,11,11,00,12,0.00
2011,11,11,00,13,0.00
2011,11,11,00,14,1.00
2011,11,11,00,15,0.10
2011,11,11,00,16,1.30
2011,11,11,00,17,1.10
2011,11,11,00,18,3.90
2011,11,11,00,19,2.50
2011,11,11,00,20,2.70
2011,11,11,00,21,1.30
2011,11,11,00,22,0.60
2011,11,11,00,23,4.70
2011,11,11,00,24,3.60
2011,11,11,00,25,0.20
2011,11,11,00,26,1.90
2011,11,11,00,27,1.30
2011,11,11,00,28,0.50
2011,11,11,00,29,1.90
2011,11,11,00,30,6.60
2011,11,11,00,31,7.70
2011,11,11,00,32,6.10
2011,11,11,00,33,1.20
2011,11,11,00,34,3.40
2011,11,11,00,35,1.40
2011,11,11,00,36,1.40
2011,11,11,00,37,5.60
2011,11,11,00,38,1.40
2011,11,11,00,39,0.30
2011,11,11,00,40,0.60
2011,11,11,00,41,2.40
2011,11,11,00,42,4.70
2011,11,11,00,43,1.10
2011,11,11,00,44,0.10
2011,11,11,00,45,0.20
2011,11,11,00,46,1.40
2011,11,11,00,47,1.10
2011,11,11,00,48,3.10
2011,11,11,00,49,4.50
2011,11,11,00,50,2.80
2011,11,11,00,51,0.50
2011,11,11,00,52,1.00
2011,11,11,00,53,0.60
2011,11,11,00,54,1.50
2011,11,11,00,55,3.70
2011,11,11,00,56,0.90
2011,11,11,00,57,0.90
2011,11,11,00,58,0.60
2011,11,11,00,59,0.00
2011,11,11,01,00,0.00
2011,11,11,01,01,0.60
2011,11,11,01,02,0.00
2011,11,11,01,03,0.00
2011,11,11,01,04,0.00
2011,11,11,01,05,0.00
2011,11,11,01,06,0.00
2011,11,11,01,07,0.00
2011,11,11,01,08,0.00
2011,11,11,01,09,0.00
2011,11,11,01,10,0.30
2011,11,11,01,11,1.90
2011,11,11,01,12,0.00
2011,11,11,01,13,0.00
2011,11,11,01,14,0.00
2011,11,11,01,15,0.10
2011,11,11,01,16,2.40
2011,11,11,01,17,0.00
2011,11,11,01,18,0.00
2011,11,11,01,19,0.20
2011,11,11,01,20,0.10
2011,11,11,01,21,0.10
2011,11,11,01,22,0.60
2011,11,11,01,23,1.00
2011,11,11,01,24,0.00
2011,11,11,01,25,1.80
2011,11,11,01,26,1.50
2011,11,11,01,27,0.80
2011,11,11,01,28,0.00
2011,11,11,01,29,0.20
2011,11,11,01,30,0.00
2011,11,11,01,31,0.00
2011,11,11,01,32,0.00
2011,11,11,01,33,1.00
2011,11,11,01,34,0.10
2011,11,11,01,35,0.00
2011,11,11,01,36,0.10
2011,11,11,01,37,0.00
2011,11,11,01,38,0.00
2011,11,11,01,39,0.10
2011,11,11,01,40,1.10
2011,11,11,01,41,3.40
2011,11,11,01,42,4.70
2011,11,11,01,43,0.20
2011,11,11,01,44,0.00
2011,11,11,01,45,0.10
2011,11,11,01,46,0.10
2011,11,11,01,47,0.10
2011,11,11,01,48,0.00
2011,11,11,01,49,0.00
2011,11,11,01,50,0.00
2011,11,11,01,51,0.00
2011,11,11,01,52,0.00
2011,11,11,01,53,0.00
2011,11,11,01,54,0.00
2011,11,11,01,55,0.00
2011,11,11,01,56,0.00
2011,11,11,01,57,0.00
2011,11,11,01,58,0.00
2011,11,11,01,59,0.00
2011,11,11,02,00,0.20
2011,11,11,02,01,4.70
2011,11,11,02,02,4.30
2011,11,11,02,03,3.00
2011,11,11,02,04,0.10
2011,11,11,02,05,0.00
2011,11,11,02,06,0.20
2011,11,11,02,07,0.00
2011,11,11,02,08,1.20
2011,11,11,02,09,1.50
2011,11,11,02,10,0.80
2011,11,11,02,11,0.60
2011,11,11,02,12,0.40
2011,11,11,02,13,0.50
2011,11,11,02,14,0.60
2011,11,11,02,15,1.60
2011,11,11,02,16,1.30
2011,11,11,02,17,1.10
2011,11,11,02,18,2.40
2011,11,11,02,19,6.00
2011,11,11,02,20,4.10
2011,11,11,02,21,2.40
2011,11,11,02,22,2.60
2011,11,11,02,23,4.30
2011,11,11,02,24,2.90
2011,11,11,02,25,4.50
2011,11,11,02,26,5.60
2011,11,11,02,27,2.70
2011,11,11,02,28,4.40
2011,11,11,02,29,2.80
2011,11,11,02,30,3.50
2011,11,11,02,31,3.00
2011,11,11,02,32,2.60
2011,11,11,02,33,4.40
2011,11,11,02,34,3.90
2011,11,11,02,35,5.50
2011,11,11,02,36,3.40
2011,11,11,02,37,4.20
2011,11,11,02,38,4.30
2011,11,11,02,39,4.10
2011,11,11,02,40,8.60
2011,11,11,02,41,4.50
2011,11,11,02,42,2.60
2011,11,11,02,43,5.30
2011,11,11,02,44,5.60
2011,11,11,02,45,2.20
2011,11,11,02,46,6.60
2011,11,11,02,47,4.20
2011,11,11,02,48,0.50
2011,11,11,02,49,2.60
2011,11,11,02,50,2.00
2011,11,11,02,51,4.60
2011,11,11,02,52,4.70
2011,11,11,02,53,3.60
2011,11,11,02,54,3.70
2011,11,11,02,55,5.90
2011,11,11,02,56,5.50
2011,11,11,02,57,5.00
2011,11,11,02,58,6.40
2011,11,11,02,59,7.30
2011,11,11,03,00,6.40
2011,11,11,03,01,5.70
2011,11,11,03,02,4.90
2011,11,11,03,03,8.30
2011,11,11,03,04,8.00
2011,11,11,03,05,8.80
2011,11,11,03,06,6.70
2011,11,11,03,07,3.60
2011,11,11,03,08,5.70
2011,11,11,03,09,6.70
2011,11,11,03,10,5.20
2011,11,11,03,11,6.30
2011,11,11,03,12,4.30
2011,11,11,03,13,1.00
2011,11,11,03,14,3.10
2011,11,11,03,15,6.30
2011,11,11,03,16,7.40
2011,11,11,03,17,8.60
2011,11,11,03,18,7.50
2011,11,11,03,19,5.50
2011,11,11,03,20,9.00
2011,11,11,03,21,8.50
2011,11,11,03,22,6.00
2011,11,11,03,23,8.80
2011,11,11,03,24,8.90
2011,11,11,03,25,4.80
2011,11,11,03,26,8.40
2011,11,11,03,27,1.20
2011,11,11,03,28,4.90
2011,11,11,03,29,6.00
2011,11,11,03,30,7.20
2011,11,11,03,31,3.50
2011,11,11,03,32,3.20
2011,11,11,03,33,1.30
2011,11,11,03,34,3.10
2011,11,11,03,35,5.30
2011,11,11,03,36,5.10
2011,11,11,03,37,5.50
2011,11,11,03,38,5.60
2011,11,11,03,39,5.50
2011,11,11,03,40,6.30
2011,11,11,03,41,6.50
2011,11,11,03,42,3.40
2011,11,11,03,43,3.50
2011,11,11,03,44,0.70
2011,11,11,03,45,2.70
2011,11,11,03,46,2.60
2011,11,11,03,47,0.60
2011,11,11,03,48,2.50
2011,11,11,03,49,3.90
2011,11,11,03,50,3.40
2011,11,11,03,51,1.40
2011,11,11,03,52,3.50
2011,11,11,03,53,3.90
2011,11,11,03,54,4.70
2011,11,11,03,55,3.90
2011,11,11,03,56,1.60
2011,11,11,03,57,1.70
2011,11,11,03,58,6.80
2011,11,11,03,59,4.70
2011,11,11,04,00,2.10
2011,11,11,04,01,2.10
2011,11,11,04,02,2.90
2011,11,11,04,03,6.30
2011,11,11,04,04,5.90
2011,11,11,04,05,4.30
2011,11,11,04,06,3.00
2011,11,11,04,07,5.30
2011,11,11,04,08,4.30
2011,11,11,04,09,0.80
2011,11,11,04,10,2.40
2011,11,11,04,11,5.10
2011,11,11,04,12,4.70
2011,11,11,04,13,4.00
2011,11,11,04,14,2.10
2011,11,11,04,15,6.30
2011,11,11,04,16,4.20
2011,11,11,04,17,4.70
2011,11,11,04,18,4.60
2011,11,11,04,19,6.20
2011,11,11,04,20,2.70
2011,11,11,04,21,5.50
2011,11,11,04,22,4.80
2011,11,11,04,23,5.90
2011,11,11,04,24,6.10
2011,11,11,04,25,6.00
2011,11,11,04,26,2.10
2011,11,11,04,27,3.40
2011,11,11,04,28,9.30
2011,11,11,04,29,8.20
2011,11,11,04,30,5.30
2011,11,11,04,31,5.00
2011,11,11,04,32,5.00
2011,11,11,04,33,6.50
2011,11,11,04,34,6.40
2011,11,11,04,35,3.50
2011,11,11,04,36,5.80
2011,11,11,04,37,3.60
2011,11,11,04,38,0.70
2011,11,11,04,39,1.80
2011,11,11,04,40,0.10
2011,11,11,04,41,1.40
2011,11,11,04,42,3.60
2011,11,11,04,43,5.10
2011,11,11,04,44,6.70
2011,11,11,04,45,3.90
2011,11,11,04,46,3.00
2011,11,11,04,47,1.00
2011,11,11,04,48,1.40
2011,11,11,04,49,0.80
2011,11,11,04,50,0.50
2011,11,11,04,51,0.80
2011,11,11,04,52,0.20
2011,11,11,04,53,0.00
2011,11,11,04,54,0.10
2011,11,11,04,55,0.30
2011,11,11,04,56,0.80
2011,11,11,04,57,1.00
2011,11,11,04,58,3.30
2011,11,11,04,59,0.20
2011,11,11,05,00,0.00
2011,11,11,05,01,0.00
2011,11,11,05,02,0.00
2011,11,11,05,03,0.00
2011,11,11,05,04,0.10
2011,11,11,05,05,0.00
2011,11,11,05,06,0.00
2011,11,11,05,07,0.00
2011,11,11,05,08,0.10
2011,11,11,05,09,0.10
2011,11,11,05,10,0.70
2011,11,11,05,11,0.00
2011,11,11,05,12,0.00
2011,11,11,05,13,0.10
2011,11,11,05,14,0.10
2011,11,11,05,15,0.00
2011,11,11,05,16,0.00
2011,11,11,05,17,0.00
2011,11,11,05,18,0.00
2011,11,11,05,19,0.00
2011,11,11,05,20,0.00
2011,11,11,05,21,0.00
2011,11,11,05,22,0.00
2011,11,11,05,23,0.00
2011,11,11,05,24,0.00
2011,11,11,05,25,1.00
2011,11,11,05,26,1.00
2011,11,11,05,27,0.00
2011,11,11,05,28,0.10
2011,11,11,05,29,0.10
2011,11,11,05,30,0.00
2011,11,11,05,31,0.60
2011,11,11,05,32,0.10
2011,11,11,05,33,0.10
2011,11,11,05,34,2.10
2011,11,11,05,35,0.30
2011,11,11,05,36,1.00
2011,11,11,05,37,2.80
2011,11,11,05,38,1.00
2011,11,11,05,39,0.00
2011,11,11,05,40,0.00
2011,11,11,05,41,0.00
2011,11,11,05,42,0.20
2011,11,11,05,43,0.00
2011,11,11,05,44,0.00
2011,11,11,05,45,1.40
2011,11,11,05,46,0.20
2011,11,11,05,47,0.00
2011,11,11,05,48,0.00
2011,11,11,05,49,0.10
2011,11,11,05,50,0.10
2011,11,11,05,51,0.00
2011,11,11,05,52,0.00
2011,11,11,05,53,0.00
2011,11,11,05,54,0.00
2011,11,11,05,55,1.80
2011,11,11,05,56,0.20
2011,11,11,05,57,0.00
2011,11,11,05,58,0.00
2011,11,11,05,59,0.00
2011,11,11,06,00,0.50
2011,11,11,06,01,2.20
2011,11,11,06,02,0.50
2011,11,11,06,03,1.20
2011,11,11,06,04,2.20
2011,11,11,06,05,0.00
2011,11,11,06,06,0.00
2011,11,11,06,07,0.00
2011,11,11,06,08,0.00
2011,11,11,06,09,0.30
2011,11,11,06,10,0.70
2011,11,11,06,11,1.10
2011,11,11,06,12,0.00
2011,11,11,06,13,0.00
2011,11,11,06,14,0.00
2011,11,11,06,15,0.20
2011,11,11,06,16,0.00
2011,11,11,06,17,0.00
2011,11,11,06,18,0.10
2011,11,11,06,19,0.00
2011,11,11,06,20,0.00
2011,11,11,06,21,0.00
2011,11,11,06,22,0.00
2011,11,11,06,23,0.10
2011,11,11,06,24,0.00
2011,11,11,06,25,1.20
2011,11,11,06,26,0.00
2011,11,11,06,27,0.10
2011,11,11,06,28,0.20
2011,11,11,06,29,0.00
2011,11,11,06,30,0.00
2011,11,11,06,31,0.00
2011,11,11,06,32,0.00
2011,11,11,06,33,0.00
2011,11,11,06,34,0.00
2011,11,11,06,35,0.00
2011,11,11,06,36,1.20
2011,11,11,06,37,1.30
2011,11,11,06,38,1.40
2011,11,11,06,39,0.10
2011,11,11,06,40,0.10
2011,11,11,06,41,0.00
2011,11,11,06,42,1.50
2011,11,11,06,43,3.20
2011,11,11,06,44,3.50
2011,11,11,06,45,4.30
2011,11,11,06,46,6.60
2011,11,11,06,47,4.40
2011,11,11,06,48,4.60
2011,11,11,06,49,4.50
2011,11,11,06,50,5.60
2011,11,11,06,51,6.20
2011,11,11,06,52,5.00
2011,11,11,06,53,3.00
2011,11,11,06,54,5.40
2011,11,11,06,55,9.80
2011,11,11,06,56,3.30
2011,11,11,06,57,0.20
2011,11,11,06,58,2.80
2011,11,11,06,59,5.30
2011,11,11,07,00,4.60
2011,11,11,07,01,2.40
2011,11,11,07,02,3.30
2011,11,11,07,03,5.80
2011,11,11,07,04,6.80
2011,11,11,07,05,5.00
2011,11,11,07,06,4.70
2011,11,11,07,07,3.40
2011,11,11,07,08,1.00
2011,11,11,07,09,0.10
2011,11,11,07,10,0.00
2011,11,11,07,11,0.10
2011,11,11,07,12,2.20
2011,11,11,07,13,4.30
2011,11,11,07,14,2.60
2011,11,11,07,15,4.80
2011,11,11,07,16,5.80
2011,11,11,07,17,4.60
2011,11,11,07,18,4.60
2011,11,11,07,19,4.00
2011,11,11,07,20,0.80
2011,11,11,07,21,3.40
2011,11,11,07,22,3.10
2011,11,11,07,23,4.40
2011,11,11,07,24,2.20
2011,11,11,07,25,4.10
2011,11,11,07,26,4.40
2011,11,11,07,27,4.10
2011,11,11,07,28,2.00
2011,11,11,07,29,7.70
2011,11,11,07,30,5.40
2011,11,11,07,31,6.30
2011,11,11,07,32,6.80
2011,11,11,07,33,3.40
2011,11,11,07,34,5.60
2011,11,11,07,35,5.80
2011,11,11,07,36,5.00
2011,11,11,07,37,6.40
2011,11,11,07,38,13.60
2011,11,11,07,39,11.30
2011,11,11,07,40,10.70
2011,11,11,07,41,9.70
2011,11,11,07,42,10.70
2011,11,11,07,43,11.30
2011,11,11,07,44,10.60
2011,11,11,07,45,7.90
2011,11,11,07,46,6.90
2011,11,11,07,47,5.20
2011,11,11,07,48,4.10
2011,11,11,07,49,3.30
2011,11,11,07,50,2.50
2011,11,11,07,51,2.20
2011,11,11,07,52,1.10
2011,11,11,07,53,0.80
2011,11,11,07,54,2.50
2011,11,11,07,55,3.90
2011,11,11,07,56,2.90
2011,11,11,07,57,2.60
2011,11,11,07,58,3.60
2011,11,11,07,59,2.50
2011,11,11,08,00,0.20
2011,11,11,08,01,0.00
2011,11,11,08,02,0.00
2011,11,11,08,03,0.10
2011,11,11,08,04,3.00
2011,11,11,08,05,0.20
2011,11,11,08,06,0.00
2011,11,11,08,07,0.00
2011,11,11,08,08,0.00
2011,11,11,08,09,0.00
2011,11,11,08,10,0.00
2011,11,11,08,11,1.00
2011,11,11,08,12,3.60
2011,11,11,08,13,5.20
2011,11,11,08,14,3.90
2011,11,11,08,15,2.30
2011,11,11,08,16,2.00
2011,11,11,08,17,0.10
2011,11,11,08,18,0.00
2011,11,11,08,19,0.50
2011,11,11,08,20,2.20
2011,11,11,08,21,1.40
2011,11,11,08,22,0.00
2011,11,11,08,23,0.50
2011,11,11,08,24,2.80
2011,11,11,08,25,1.90
2011,11,11,08,26,2.30
2011,11,11,08,27,3.00
2011,11,11,08,28,2.00
2011,11,11,08,29,0.20
2011,11,11,08,30,0.00
2011,11,11,08,31,0.00
2011,11,11,08,32,0.30
2011,11,11,08,33,0.20
2011,11,11,08,34,0.00
2011,11,11,08,35,0.00
2011,11,11,08,36,0.10
2011,11,11,08,37,1.30
2011,11,11,08,38,0.20
2011,11,11,08,39,0.00
2011,11,11,08,40,0.10
2011,11,11,08,41,0.00
2011,11,11,08,42,0.00
2011,11,11,08,43,0.00
2011,11,11,08,44,0.00
2011,11,11,08,45,0.00
2011,11,11,08,46,0.20
2011,11,11,08,47,0.20
2011,11,11,08,48,0.00
2011,11,11,08,49,0.00
2011,11,11,08,50,0.60
2011,11,11,08,51,1.70
2011,11,11,08,52,0.00
2011,11,11,08,53,0.90
2011,11,11,08,54,0.20
2011,11,11,08,55,0.00
2011,11,11,08,56,0.00
2011,11,11,08,57,1.80
2011,11,11,08,58,5.30
2011,11,11,08,59,3.90
2011,11,11,09,00,3.50
2011,11,11,09,01,3.50
2011,11,11,09,02,3.30
2011,11,11,09,03,1.70
2011,11,11,09,04,0.30
2011,11,11,09,05,0.00
2011,11,11,09,06,2.90
2011,11,11,09,07,4.60
2011,11,11,09,08,5.30
2011,11,11,09,09,3.60
2011,11,11,09,10,0.60
2011,11,11,09,11,0.00
2011,11,11,09,12,0.40
2011,11,11,09,13,4.10
2011,11,11,09,14,4.50
2011,11,11,09,15,2.20
2011,11,11,09,16,0.20
2011,11,11,09,17,0.80
2011,11,11,09,18,2.70
2011,11,11,09,19,1.50
2011,11,11,09,20,0.00
2011,11,11,09,21,0.00
2011,11,11,09,22,0.00
2011,11,11,09,23,0.00
2011,11,11,09,24,0.00
2011,11,11,09,25,0.00
2011,11,11,09,26,0.00
2011,11,11,09,27,1.20
2011,11,11,09,28,2.00
2011,11,11,09,29,2.90
2011,11,11,09,30,0.10
2011,11,11,09,31,1.70
2011,11,11,09,32,5.30
2011,11,11,09,33,6.90
2011,11,11,09,34,6.50
2011,11,11,09,35,2.00
2011,11,11,09,36,3.10
2011,11,11,09,37,1.40
2011,11,11,09,38,2.10
2011,11,11,09,39,0.60
2011,11,11,09,40,1.20
2011,11,11,09,41,6.50
2011,11,11,09,42,8.30
2011,11,11,09,43,11.30
2011,11,11,09,44,7.30
2011,11,11,09,45,2.50
2011,11,11,09,46,4.80
2011,11,11,09,47,5.50
2011,11,11,09,48,7.80
2011,11,11,09,49,12.40
2011,11,11,09,50,10.20
2011,11,11,09,51,3.90
2011,11,11,09,52,3.50
2011,11,11,09,53,3.30
2011,11,11,09,54,4.70
2011,11,11,09,55,6.70
2011,11,11,09,56,4.10
2011,11,11,09,57,1.10
2011,11,11,09,58,0.60
2011,11,11,09,59,3.50
2011,11,11,10,00,3.10
2011,11,11,10,01,3.00
2011,11,11,10,02,1.50
2011,11,11,10,03,3.60
2011,11,11,10,04,7.40
2011,11,11,10,05,6.50
2011,11,11,10,06,7.30
2011,11,11,10,07,8.00
2011,11,11,10,08,1.00
2011,11,11,10,09,1.50
2011,11,11,10,10,0.00
2011,11,11,10,11,2.40
2011,11,11,10,12,3.50
2011,11,11,10,13,0.10
2011,11,11,10,14,0.00
2011,11,11,10,15,0.50
2011,11,11,10,16,3.90
2011,11,11,10,17,3.10
2011,11,11,10,18,3.00
2011,11,11,10,19,4.30
2011,11,11,10,20,2.90
2011,11,11,10,21,7.90
2011,11,11,10,22,5.50
2011,11,11,10,23,4.90
2011,11,11,10,24,8.00
2011,11,11,10,25,7.20
2011,11,11,10,26,10.90
2011,11,11,10,27,6.20
2011,11,11,10,28,4.50
2011,11,11,10,29,2.90
2011,11,11,10,30,3.60
2011,11,11,10,31,1.10
2011,11,11,10,32,3.80
2011,11,11,10,33,9.60
2011,11,11,10,34,6.10
2011,11,11,10,35,4.30
2011,11,11,10,36,4.30
2011,11,11,10,37,4.90
2011,11,11,10,38,6.90
2011,11,11,10,39,11.30
2011,11,11,10,40,11.40
2011,11,11,10,41,2.90
2011,11,11,10,42,5.70
2011,11,11,10,43,4.30
2011,11,11,10,44,7.40
2011,11,11,10,45,12.40
2011,11,11,10,46,9.00
2011,11,11,10,47,10.00
2011,11,11,10,48,7.30
2011,11,11,10,49,3.20
2011,11,11,10,50,2.50
2011,11,11,10,51,3.40
2011,11,11,10,52,1.10
2011,11,11,10,53,2.60
2011,11,11,10,54,2.50
2011,11,11,10,55,1.60
2011,11,11,10,56,2.50
2011,11,11,10,57,1.70
2011,11,11,10,58,1.00
2011,11,11,10,59,4.60
2011,11,11,11,00,2.80
2011,11,11,11,01,6.40
2011,11,11,11,02,9.00
2011,11,11,11,03,10.10
2011,11,11,11,04,10.50
2011,11,11,11,05,6.70
2011,11,11,11,06,8.30
2011,11,11,11,07,5.40
2011,11,11,11,08,2.90
2011,11,11,11,09,5.00
2011,11,11,11,10,6.80
2011,11,11,11,11,3.20
2011,11,11,11,12,3.40
2011,11,11,11,13,1.00
2011,11,11,11,14,1.60
2011,11,11,11,15,2.50
2011,11,11,11,16,1.60
2011,11,11,11,17,0.60
2011,11,11,11,18,1.10
2011,11,11,11,19,4.10
2011,11,11,11,20,1.70
2011,11,11,11,21,1.40
2011,11,11,11,22,3.90
2011,11,11,11,23,6.70
2011,11,11,11,24,11.00
2011,11,11,11,25,9.60
2011,11,11,11,26,5.20
2011,11,11,11,27,2.70
2011,11,11,11,28,4.40
2011,11,11,11,29,5.40
2011,11,11,11,30,4.50
2011,11,11,11,31,6.60
2011,11,11,11,32,6.90
2011,11,11,11,33,7.40
2011,11,11,11,34,5.10
2011,11,11,11,35,2.90
2011,11,11,11,36,0.20
2011,11,11,11,37,0.50
2011,11,11,11,38,1.00
2011,11,11,11,39,3.00
2011,11,11,11,40,6.00
2011,11,11,11,41,2.60
2011,11,11,11,42,2.10
2011,11,11,11,43,3.20
2011,11,11,11,44,3.10
2011,11,11,11,45,4.70
2011,11,11,11,46,5.70
2011,11,11,11,47,7.60
2011,11,11,11,48,6.80
2011,11,11,11,49,5.50
2011,11,11,11,50,4.40
2011,11,11,11,51,6.30
2011,11,11,11,52,4.50
2011,11,11,11,53,6.80
2011,11,11,11,54,7.00
2011,11,11,11,55,9.10
2011,11,11,11,56,4.10
2011,11,11,11,57,2.90
2011,11,11,11,58,4.70
2011,11,11,11,59,0.20
2011,11,11,12,00,6.80
2011,11,11,12,01,5.20
2011,11,11,12,02,2.10
2011,11,11,12,03,3.80
2011,11,11,12,04,2.40
2011,11,11,12,05,2.40
2011,11,11,12,06,2.60
2011,11,11,12,07,0.60
2011,11,11,12,08,2.10
2011,11,11,12,09,3.80
2011,11,11,12,10,1.40
2011,11,11,12,11,1.90
2011,11,11,12,12,3.40
2011,11,11,12,13,6.00
2011,11,11,12,14,6.90
2011,11,11,12,15,4.00
2011,11,11,12,16,1.10
2011,11,11,12,17,3.70
2011,11,11,12,18,7.30
2011,11,11,12,19,4.00
2011,11,11,12,20,1.50
2011,11,11,12,21,3.00
2011,11,11,12,22,3.30
2011,11,11,12,23,5.10
2011,11,11,12,24,1.40
2011,11,11,12,25,3.80
2011,11,11,12,26,2.70
2011,11,11,12,27,2.30
2011,11,11,12,28,0.60
2011,11,11,12,29,1.50
2011,11,11,12,30,4.30
2011,11,11,12,31,7.50
2011,11,11,12,32,6.70
2011,11,11,12,33,14.50
2011,11,11,12,34,10.20
2011,11,11,12,35,5.90
2011,11,11,12,36,3.50
2011,11,11,12,37,2.10
2011,11,11,12,38,1.40
2011,11,11,12,39,2.00
2011,11,11,12,40,0.40
2011,11,11,12,41,1.70
2011,11,11,12,42,2.30
2011,11,11,12,43,2.70
2011,11,11,12,44,0.40
2011,11,11,12,45,0.00
2011,11,11,12,46,0.40
2011,11,11,12,47,5.40
2011,11,11,12,48,7.50
2011,11,11,12,49,9.20
2011,11,11,12,50,6.40
2011,11,11,12,51,10.80
2011,11,11,12,52,17.60
2011,11,11,12,53,12.60
2011,11,11,12,54,9.70
2011,11,11,12,55,4.20
2011,11,11,12,56,7.90
2011,11,11,12,57,9.20
2011,11,11,12,58,16.00
2011,11,11,12,59,24.70
2011,11,11,13,00,38.40
2011,11,11,13,01,41.80
2011,11,11,13,02,40.20
2011,11,11,13,03,22.40
2011,11,11,13,04,20.00
2011,11,11,13,05,15.30
2011,11,11,13,06,27.00
2011,11,11,13,07,26.00
2011,11,11,13,08,29.20
2011,11,11,13,09,25.40
2011,11,11,13,10,27.30
2011,11,11,13,11,29.40
2011,11,11,13,12,13.80
2011,11,11,13,13,31.00
2011,11,11,13,14,27.00
2011,11,11,13,15,19.30
2011,11,11,13,16,26.00
2011,11,11,13,17,20.90
2011,11,11,13,18,15.40
2011,11,11,13,19,23.70
2011,11,11,13,20,20.80
2011,11,11,13,21,26.10
2011,11,11,13,22,27.50
2011,11,11,13,23,22.60
2011,11,11,13,24,19.20
2011,11,11,13,25,11.50
2011,11,11,13,26,8.00
2011,11,11,13,27,13.30
2011,11,11,13,28,16.70
2011,11,11,13,29,20.40
2011,11,11,13,30,22.10
2011,11,11,13,31,17.00
2011,11,11,13,32,12.60
2011,11,11,13,33,17.90
2011,11,11,13,34,23.90
2011,11,11,13,35,13.00
2011,11,11,13,36,14.60
2011,11,11,13,37,8.30
2011,11,11,13,38,10.50
2011,11,11,13,39,10.70
2011,11,11,13,40,14.10
2011,11,11,13,41,19.90
2011,11,11,13,42,14.60
2011,11,11,13,43,14.50
2011,11,11,13,44,12.40
2011,11,11,13,45,17.30
2011,11,11,13,46,20.60
2011,11,11,13,47,10.10
2011,11,11,13,48,7.10
2011,11,11,13,49,3.90
2011,11,11,13,50,3.80
2011,11,11,13,51,8.10
2011,11,11,13,52,5.20
2011,11,11,13,53,1.90
2011,11,11,13,54,3.60
2011,11,11,13,55,18.70
2011,11,11,13,56,10.50
2011,11,11,13,57,4.40
2011,11,11,13,58,4.10
2011,11,11,13,59,8.00
2011,11,11,14,00,9.70
2011,11,11,14,01,15.60
2011,11,11,14,02,9.30
2011,11,11,14,03,17.10
2011,11,11,14,04,19.00
2011,11,11,14,05,13.00
2011,11,11,14,06,6.40
2011,11,11,14,07,8.40
2011,11,11,14,08,5.80
2011,11,11,14,09,4.40
2011,11,11,14,10,3.20
2011,11,11,14,11,3.60
2011,11,11,14,12,2.00
2011,11,11,14,13,6.90
2011,11,11,14,14,14.30
2011,11,11,14,15,6.60
2011,11,11,14,16,7.20
2011,11,11,14,17,3.80
2011,11,11,14,18,5.50
2011,11,11,14,19,9.60
2011,11,11,14,20,3.70
2011,11,11,14,21,6.50
2011,11,11,14,22,3.10
2011,11,11,14,23,8.00
2011,11,11,14,24,4.30
2011,11,11,14,25,3.20
2011,11,11,14,26,5.00
2011,11,11,14,27,3.40
2011,11,11,14,28,9.30
2011,11,11,14,29,7.50
2011,11,11,14,30,3.80
2011,11,11,14,31,7.30
2011,11,11,14,32,6.30
2011,11,11,14,33,4.60
2011,11,11,14,34,4.30
2011,11,11,14,35,4.60
2011,11,11,14,36,1.00
2011,11,11,14,37,1.40
2011,11,11,14,38,5.10
2011,11,11,14,39,2.10
2011,11,11,14,40,2.80
2011,11,11,14,41,1.70
2011,11,11,14,42,3.60
2011,11,11,14,43,1.90
2011,11,11,14,44,2.90
2011,11,11,14,45,3.90
2011,11,11,14,46,1.30
2011,11,11,14,47,4.70
2011,11,11,14,48,4.70
2011,11,11,14,49,0.20
2011,11,11,14,50,0.20
2011,11,11,14,51,0.70
2011,11,11,14,52,1.40
2011,11,11,14,53,1.30
2011,11,11,14,54,0.40
2011,11,11,14,55,0.60
2011,11,11,14,56,1.60
2011,11,11,14,57,7.20
2011,11,11,14,58,4.20
2011,11,11,14,59,3.50
2011,11,11,15,00,1.00
2011,11,11,15,01,3.00
2011,11,11,15,02,1.10
2011,11,11,15,03,0.80
2011,11,11,15,04,1.90
2011,11,11,15,05,1.80
2011,11,11,15,06,0.10
2011,11,11,15,07,0.90
2011,11,11,15,08,2.30
2011,11,11,15,09,0.70
2011,11,11,15,10,0.30
2011,11,11,15,11,0.10
2011,11,11,15,12,2.30
2011,11,11,15,13,2.30
2011,11,11,15,14,1.80
2011,11,11,15,15,2.40
2011,11,11,15,16,4.00
2011,11,11,15,17,1.20
2011,11,11,15,18,1.20
2011,11,11,15,19,1.10
2011,11,11,15,20,0.00
2011,11,11,15,21,3.40
2011,11,11,15,22,3.20
2011,11,11,15,23,1.90
2011,11,11,15,24,4.40
2011,11,11,15,25,2.10
2011,11,11,15,26,3.50
2011,11,11,15,27,2.50
2011,11,11,15,28,3.00
2011,11,11,15,29,3.60
2011,11,11,15,30,2.30
2011,11,11,15,31,1.20
2011,11,11,15,32,5.30
2011,11,11,15,33,0.40
2011,11,11,15,34,1.00
2011,11,11,15,35,1.60
2011,11,11,15,36,2.30
2011,11,11,15,37,2.70
2011,11,11,15,38,0.30
2011,11,11,15,39,2.20
2011,11,11,15,40,1.00
2011,11,11,15,41,0.00
2011,11,11,15,42,0.40
2011,11,11,15,43,1.90
2011,11,11,15,44,0.10
2011,11,11,15,45,0.80
2011,11,11,15,46,0.30
2011,11,11,15,47,0.00
2011,11,11,15,48,0.20
2011,11,11,15,49,5.00
2011,11,11,15,50,0.80
2011,11,11,15,51,1.90
2011,11,11,15,52,1.40
2011,11,11,15,53,0.00
2011,11,11,15,54,0.90
2011,11,11,15,55,0.20
2011,11,11,15,56,0.00
2011,11,11,15,57,0.00
2011,11,11,15,58,0.50
2011,11,11,15,59,0.60
2011,11,11,16,00,1.90
2011,11,11,16,01,0.60
2011,11,11,16,02,0.20
2011,11,11,16,03,0.10
2011,11,11,16,04,0.30
2011,11,11,16,05,2.80
2011,11,11,16,06,1.20
2011,11,11,16,07,0.00
2011,11,11,16,08,0.10
2011,11,11,16,09,0.10
2011,11,11,16,10,0.20
2011,11,11,16,11,1.90
2011,11,11,16,12,0.60
2011,11,11,16,13,0.80
2011,11,11,16,14,0.30
2011,11,11,16,15,0.20
2011,11,11,16,16,0.00
2011,11,11,16,17,0.60
2011,11,11,16,18,0.00
2011,11,11,16,19,0.10
2011,11,11,16,20,0.00
2011,11,11,16,21,0.00
2011,11,11,16,22,0.00
2011,11,11,16,23,0.00
2011,11,11,16,24,0.00
2011,11,11,16,25,0.10
2011,11,11,16,26,1.30
2011,11,11,16,27,0.00
2011,11,11,16,28,0.00
2011,11,11,16,29,0.00
2011,11,11,16,30,0.30
2011,11,11,16,31,0.00
2011,11,11,16,32,0.00
2011,11,11,16,33,0.00
2011,11,11,16,34,0.10
2011,11,11,16,35,0.00
2011,11,11,16,36,0.00
2011,11,11,16,37,0.00
2011,11,11,16,38,0.00
2011,11,11,16,39,0.10
2011,11,11,16,40,0.50
2011,11,11,16,41,0.20
2011,11,11,16,42,0.10
2011,11,11,16,43,0.00
2011,11,11,16,44,0.00
2011,11,11,16,45,0.00
2011,11,11,16,46,0.00
2011,11,11,16,47,0.00
2011,11,11,16,48,0.00
2011,11,11,16,49,2.60
2011,11,11,16,50,2.60
2011,11,11,16,51,0.20
2011,11,11,16,52,1.00
2011,11,11,16,53,0.00
2011,11,11,16,54,0.00
2011,11,11,16,55,0.00
2011,11,11,16,56,0.90
2011,11,11,16,57,1.80
2011,11,11,16,58,3.30
2011,11,11,16,59,0.20
2011,11,11,17,00,0.00
2011,11,11,17,01,0.00
2011,11,11,17,02,0.00
2011,11,11,17,03,0.00
2011,11,11,17,04,0.00
2011,11,11,17,05,0.00
2011,11,11,17,06,0.00
2011,11,11,17,07,0.50
2011,11,11,17,08,0.60
2011,11,11,17,09,0.20
2011,11,11,17,10,0.00
2011,11,11,17,11,0.00
2011,11,11,17,12,0.00
2011,11,11,17,13,0.10
2011,11,11,17,14,0.10
2011,11,11,17,15,0.20
2011,11,11,17,16,2.90
2011,11,11,17,17,0.30
2011,11,11,17,18,0.00
2011,11,11,17,19,0.70
2011,11,11,17,20,0.30
2011,11,11,17,21,0.00
2011,11,11,17,22,0.00
2011,11,11,17,23,0.00
2011,11,11,17,24,0.00
2011,11,11,17,25,2.60
2011,11,11,17,26,2.10
2011,11,11,17,27,4.30
2011,11,11,17,28,1.40
2011,11,11,17,29,0.30
2011,11,11,17,30,0.30
2011,11,11,17,31,1.00
2011,11,11,17,32,0.20
2011,11,11,17,33,0.00
2011,11,11,17,34,0.30
2011,11,11,17,35,0.30
2011,11,11,17,36,0.00
2011,11,11,17,37,0.00
2011,11,11,17,38,0.80
2011,11,11,17,39,0.10
2011,11,11,17,40,1.10
2011,11,11,17,41,0.30
2011,11,11,17,42,0.40
2011,11,11,17,43,0.00
2011,11,11,17,44,0.10
2011,11,11,17,45,0.10
2011,11,11,17,46,0.10
2011,11,11,17,47,2.30
2011,11,11,17,48,2.30
2011,11,11,17,49,2.80
2011,11,11,17,50,2.90
2011,11,11,17,51,2.00
2011,11,11,17,52,0.40
2011,11,11,17,53,1.90
2011,11,11,17,54,4.30
2011,11,11,17,55,2.70
2011,11,11,17,56,4.70
2011,11,11,17,57,2.70
2011,11,11,17,58,8.00
2011,11,11,17,59,6.50
2011,11,11,18,00,3.90
2011,11,11,18,01,8.10
2011,11,11,18,02,5.20
2011,11,11,18,03,5.50